sat.trackr.live / text

‹ back to catalog

STARLINK-35796

NORAD 66541 · 2025-265AB

PAYLOAD ACTIVE UNKNOWN

§ Identity

Operator
Country
US
Launch date
2025-11-19
Launch site
AFETR
Launch vehicle
Mass (kg)
RCS (m²)

Purposes: comms

External: N2YO · Heavens-Above · Gunter

§ Orbital elements

Epoch: 2026-09-20T16:21:37.075968Z

Period
94.27 min
Inclination
42.9967°
Eccentricity
0.0001159
Mean motion
15.27586854 rev/d
Perigee alt
482.2 km
Apogee alt
483.8 km
Semi-major
6,861.2 km
B*
1.9897e-4
RAAN
256.8311°
Arg perigee
270.8668°
Mean anomaly
89.2051°
Rev number
4,693

§ Raw data

STARLINK-357961 66541U 25265AB  26263.68167912  .00005218  00000+0  19897-3 0  99932 66541  42.9967 256.8311 0001159 270.8668  89.2051 15.27586854 46938

JSON: /api/v1/satellites/66541 · /tle

For live sub-satellite position, see the globe view (requires WebGL).

§ Visibility from observer

Set your observer location to see the next 7 days of passes ≥ 10°. The values pass through the URL so the page stays shareable.

No JS? Fill the form by hand. The geolocation button needs JavaScript.